Weather History for Wautoma, WI

Change the Weather History Date:

Saturday, July 27, 2013

  Actual Average (KPCZ) Record (KPCZ)
Temperature  
Mean Temperature 52 °F -  
Max Temperature 59 °F 81 °F 95 °F (1954)
Min Temperature 45 °F 58 °F 48 °F (1971)
Degree Days  
Heating Degree Days 13    
Growing Degree Days 2 (Base 50)    
Moisture  
Dew Point 47 °F    
Average Humidity 81    
Maximum Humidity 100    
Minimum Humidity 64    
Precipitation  
Precipitation 0.03 in - - ()
Sea Level Pressure  
Sea Level Pressure 29.92 in    
Wind  
Wind Speed 8 mph (WNW)    
Max Wind Speed 14 mph    
Max Gust Speed 18 mph    
Visibility 9 miles    
Events Rain    
Averages and records for this station are not official NWS values.
T = Trace of Precipitation, MM = Missing Value Source: NWS Daily Summary

Daily Weather History Graph

Daily Weather History Graph

Search for Another Location

Airport:

Trip Planner

Search our weather history database for the weather conditions in past years. The results will help you decide how hot, cold, wet, or windy it might be!

Date:

Astronomy

Jul. 27, 2013 Rise Set
Actual Time 5:40 AM CDT 8:26 PM CDT
Civil Twilight 5:06 AM CDT 9:00 PM CDT
Nautical Twilight 4:24 AM CDT 9:42 PM CDT
Astronomical Twilight 3:34 AM CDT 10:31 PM CDT
Moon 10:58 PM CDT (7/27) 11:35 AM CDT (7/27)
Length of Visible Light 15h 53m
Length of Day
14h 46m
Waning Gibbous, 70% of the Moon is Illuminated
Jul 27
Waning Gibbous
Jul 29
Last Quarter
Aug 6
New
Aug 14
First Quarter
Aug 20
Full

Hourly Weather History & Observations

Time (CDT) Temp. Windchill Dew Point Humidity Pressure Visibility Wind Dir Wind Speed Gust Speed Precip Events Conditions
12:05 AM 55.4 °F - 48.2 °F 77% 29.95 in 10.0 mi NNW 5.8 mph - N/A   Mostly Cloudy
12:21 AM 55.4 °F - 48.2 °F 77% 29.95 in 10.0 mi NNW 4.6 mph - N/A   Mostly Cloudy
12:56 AM 54.0 °F - 47.8 °F 80% 29.94 in 10.0 mi NNW 10.4 mph - N/A   Clear
1:56 AM 52.0 °F - 46.9 °F 83% 29.94 in 10.0 mi NNW 6.9 mph - N/A   Clear
2:56 AM 50.0 °F - 46.9 °F 89% 29.94 in 10.0 mi NW 8.1 mph - N/A   Clear
3:56 AM 47.8 °F - 45.0 °F 90% 29.95 in 10.0 mi NW 4.6 mph - N/A   Partly Cloudy
4:56 AM 45.9 °F 42.9 °F 43.9 °F 93% 29.95 in 10.0 mi NW 5.8 mph - N/A   Clear
5:56 AM 45.9 °F 42.3 °F 43.9 °F 93% 29.96 in 10.0 mi NW 6.9 mph - N/A   Clear
6:22 AM 46.4 °F 42.9 °F 44.6 °F 93% 29.97 in 10.0 mi NNW 6.9 mph - N/A   Mostly Cloudy
6:56 AM 47.8 °F - 43.9 °F 86% 29.96 in 10.0 mi NW 5.8 mph - N/A   Overcast
7:41 AM 48.2 °F - 44.6 °F 87% 29.97 in 10.0 mi NNW 6.9 mph - N/A   Scattered Clouds
7:56 AM 50.0 °F - 43.9 °F 79% 29.96 in 10.0 mi NW 10.4 mph - N/A   Mostly Cloudy
8:56 AM 52.0 °F - 41.9 °F 69% 29.95 in 10.0 mi NNW 8.1 mph - N/A   Mostly Cloudy
9:18 AM 51.8 °F - 42.8 °F 71% 29.96 in 10.0 mi NNW 10.4 mph - N/A   Mostly Cloudy
9:35 AM 51.8 °F - 42.8 °F 71% 29.95 in 10.0 mi WNW 11.5 mph - N/A   Overcast
9:56 AM 53.6 °F - 42.8 °F 67% 29.95 in 10.0 mi NW 9.2 mph - N/A   Mostly Cloudy
10:13 AM 53.6 °F - 42.8 °F 67% 29.95 in 10.0 mi NW 8.1 mph - N/A   Overcast
10:23 AM 53.6 °F - 42.8 °F 67% 29.95 in 10.0 mi NNW 8.1 mph - N/A   Overcast
10:34 AM 53.6 °F - 42.8 °F 67% 29.94 in 10.0 mi WNW 12.7 mph - N/A   Overcast
10:46 AM 53.6 °F - 42.8 °F 67% 29.94 in 10.0 mi NW 10.4 mph - N/A   Overcast
10:56 AM 54.9 °F - 43.0 °F 64% 29.93 in 10.0 mi WNW 8.1 mph - N/A   Overcast
11:56 AM 54.9 °F - 43.9 °F 66% 29.93 in 10.0 mi West 10.4 mph - N/A   Mostly Cloudy
12:56 PM 55.4 °F - 44.6 °F 67% 29.93 in 10.0 mi WNW 10.4 mph - N/A   Mostly Cloudy
1:56 PM 56.8 °F - 45.9 °F 67% 29.91 in 10.0 mi West 11.5 mph - N/A   Mostly Cloudy
2:56 PM 57.9 °F - 45.9 °F 64% 29.90 in 10.0 mi NW 13.8 mph 18.4 mph N/A   Mostly Cloudy
3:56 PM 59.0 °F - 48.2 °F 67% 29.89 in 10.0 mi West 9.2 mph - N/A   Mostly Cloudy
4:33 PM 57.2 °F - 46.4 °F 67% 29.89 in 10.0 mi West 13.8 mph - N/A   Mostly Cloudy
4:56 PM 57.9 °F - 47.8 °F 69% 29.88 in 10.0 mi WSW 11.5 mph - N/A   Mostly Cloudy
5:44 PM 53.6 °F - 51.8 °F 94% 29.88 in 2.0 mi WNW 10.4 mph - 0.02 in Rain Rain
5:46 PM 53.6 °F - 51.8 °F 94% 29.88 in 1.8 mi WNW 11.5 mph - 0.02 in Rain Rain
5:56 PM 52.9 °F - 52.9 °F 100% 29.88 in 5.0 mi West 6.9 mph - 0.02 in Rain Light Rain
6:56 PM 53.6 °F - 51.8 °F 94% 29.88 in 10.0 mi West 8.1 mph - N/A   Mostly Cloudy
7:56 PM 52.9 °F - 52.0 °F 97% 29.87 in 10.0 mi West 6.9 mph - 0.00 in   Overcast
8:56 PM 52.9 °F - 50.0 °F 90% 29.87 in 10.0 mi West 6.9 mph - N/A   Overcast
9:56 PM 51.8 °F - 51.8 °F 100% 29.88 in 10.0 mi WSW 4.6 mph - N/A   Mostly Cloudy
10:56 PM 50.9 °F - 50.9 °F 100% 29.87 in 10.0 mi WSW 5.8 mph - N/A   Overcast
11:22 PM 51.8 °F - 51.8 °F 100% 29.87 in 10.0 mi WNW 5.8 mph - 0.00 in Rain Light Rain
11:56 PM 50.9 °F - 50.9 °F 100% 29.87 in 6.0 mi Calm Calm - 0.01 in Rain Light Rain